Portada
METAR-TAF:

METAR-TAF

Aeropuertos :

Aeropuerto José Chávez Suárez

Santa Ana del Yacuma, Bolivia

latitud: 13-46S, longitud: 065-26W, altitud: 144 m

Observación

El informe se hizo hace 4 horas y 0 minutos, a las 23:00 UTC
Viento 6 kt del norte-noreste
Temperatura 27°C
Humedad 79%
Presión 1004 hPa
Visibilidad: 8000 m
Nubes dispersas a una altura de 2000 ft
Escasas nubes a una altura de 2300 ft, Cumulonimbus.
Cielo nuboso a una altura de 20000 ft

METAR: SLSA 212300Z 03006KT 8000 SCT020 FEW023CB BKN200 27/23 Q1004

Hora: 23:00 (03:00 UTC)


TAF: falta

Observaciones y pronósticos meteorológicos de más de 4000 aeropuertos (mensajes METAR y TAF).

Los puntos amarillos y rojos representan las estaciones disponibles.

Ponga el ratón en el punto deseado para ver el nombre de la estación.

Haga clic para ver las observaciones y los pronósticos meteorológicos.

Para cambiar el mapa : haga clic en los botones verdes con una cruz de color negro para hacer un zoom, en el botón verde con un guión para alejar o en las flechas verdes para mapas adyacentes.


METAR-TAF: